TimePDT,TemperatureF,Dew PointF,Humidity,Sea Level PressureIn,VisibilityMPH,Wind Direction,Wind SpeedMPH,Gust SpeedMPH,PrecipitationIn,Events,Conditions,WindDirDegrees,DateUTC
12:53 AM,51.1,34.0,52,29.98,10.0,ESE,4.6,-,N/A,,Clear,120,2012-10-10 07:53:00
1:53 AM,52.0,34.0,50,29.98,10.0,SE,3.5,-,N/A,,Clear,130,2012-10-10 08:53:00
2:53 AM,50.0,34.0,54,29.97,10.0,Calm,Calm,-,N/A,,Clear,0,2012-10-10 09:53:00
3:53 AM,48.9,34.0,56,29.98,10.0,Calm,Calm,-,N/A,,Clear,0,2012-10-10 10:53:00
4:53 AM,48.0,34.0,58,29.97,10.0,East,3.5,-,N/A,,Clear,100,2012-10-10 11:53:00
5:53 AM,50.0,34.0,54,29.96,10.0,ESE,6.9,-,N/A,,Clear,110,2012-10-10 12:53:00
6:53 AM,52.0,35.1,53,29.95,10.0,ESE,5.8,-,N/A,,Clear,110,2012-10-10 13:53:00
7:53 AM,53.1,35.1,50,29.96,10.0,ESE,3.5,-,N/A,,Clear,120,2012-10-10 14:53:00
8:53 AM,62.1,36.0,38,29.96,10.0,Calm,Calm,-,N/A,,Clear,0,2012-10-10 15:53:00
9:53 AM,64.0,35.1,34,29.96,10.0,WNW,6.9,-,N/A,,Clear,300,2012-10-10 16:53:00
10:53 AM,66.9,35.1,31,29.95,10.0,West,4.6,-,N/A,,Clear,270,2012-10-10 17:53:00
11:53 AM,69.1,34.0,27,29.94,10.0,WNW,3.5,-,N/A,,Clear,300,2012-10-10 18:53:00
12:53 PM,72.0,34.0,25,29.91,10.0,Variable,4.6,-,N/A,,Clear,0,2012-10-10 19:53:00
1:53 PM,75.0,34.0,22,29.88,10.0,WNW,5.8,-,N/A,,Clear,300,2012-10-10 20:53:00
2:53 PM,75.9,34.0,22,29.86,10.0,WNW,5.8,-,N/A,,Clear,290,2012-10-10 21:53:00
3:53 PM,75.9,34.0,22,29.85,10.0,SW,4.6,-,N/A,,Clear,220,2012-10-10 22:53:00
4:53 PM,75.0,34.0,22,29.84,10.0,SSW,3.5,-,N/A,,Clear,210,2012-10-10 23:53:00
5:53 PM,72.0,35.1,26,29.83,10.0,Calm,Calm,-,N/A,,Clear,0,2012-10-11 00:53:00
6:53 PM,62.1,37.0,39,29.84,10.0,East,3.5,-,N/A,,Clear,100,2012-10-11 01:53:00
7:53 PM,60.1,36.0,41,29.84,10.0,ESE,8.1,-,N/A,,Clear,110,2012-10-11 02:53:00
8:53 PM,61.0,36.0,39,29.84,10.0,ESE,9.2,-,N/A,,Clear,110,2012-10-11 03:53:00
9:53 PM,57.9,35.1,42,29.85,10.0,East,8.1,-,N/A,,Clear,90,2012-10-11 04:53:00
10:53 PM,57.9,34.0,41,29.85,10.0,East,6.9,-,N/A,,Clear,100,2012-10-11 05:53:00
11:53 PM,55.0,33.1,43,29.87,10.0,ESE,3.5,-,N/A,,Clear,120,2012-10-11 06:53:00